OE5RBO Weather Reports


time (UTC)temp
C
wind
direction
speed
KPH
gust
KPH
rain 1hr
cm
rain 24hr
cm
rain mn
cm
humidity
%
barometer
mb
20260906021712 13 0 0.0 0.0 0.00 0.00 0.00 99 1026.5
20260906020712 14 0 0.0 0.0 0.00 0.00 0.00 99 1026.4
20260906015712 14 0 0.0 0.0 0.00 0.00 0.00 98 1026.5
20260906014711 14 0 0.0 0.0 0.00 0.00 0.00 98 1026.5
20260906013711 14 0 0.0 0.0 0.00 0.00 0.00 98 1026.4
20260906012711 15 42 1.6 4.8 0.00 0.00 0.00 98 1026.4
20260906011710 15 0 0.0 0.0 0.00 0.00 0.00 98 1026.4
20260906010710 15 35 4.8 4.8 0.00 0.00 0.00 98 1026.4
20260906005710 15 35 1.6 4.8 0.00 0.00 0.00 98 1026.4
20260906004709 15 45 1.6 4.8 0.00 0.00 0.00 98 1026.3
20260906002709 15 52 3.2 4.8 0.00 0.00 0.00 98 1026.3
20260906001708 16 59 0.0 3.2 0.00 0.00 0.00 98 1026.3
20260906000707 16 56 1.6 4.8 0.00 0.00 0.00 98 1026.3
20260905234707 16 0 0.0 0.0 0.00 0.00 0.00 98 1026.1
20260905232706 16 0 0.0 0.0 0.00 0.00 0.00 98 1026.2
20260905231706 17 135 1.6 6.4 0.00 0.00 0.69 98 1026.1
20260905230705 17 195 3.2 6.4 0.00 0.00 0.69 98 1026.1
20260905225705 17 153 1.6 8.0 0.00 0.00 0.69 98 1026.0
20260905224704 17 128 1.6 6.4 0.00 0.00 0.69 98 1025.9
20260905222704 17 149 3.2 9.7 0.00 0.00 0.69 99 1025.8
20260905221703 17 158 3.2 6.4 0.00 0.00 0.69 98 1025.7
20260905220703 17 153 1.6 4.8 0.00 0.00 0.69 98 1025.7
20260905215703 17 0 0.0 0.0 0.00 0.00 0.69 98 1025.7
20260905214702 17 0 0.0 0.0 0.00 0.00 0.69 98 1025.5
20260905213702 17 166 1.6 4.8 0.00 0.00 0.69 98 1025.4
20260905212702 17 51 1.6 3.2 0.00 0.00 0.69 97 1025.3
20260905210701 18 219 0.0 1.6 0.00 0.00 0.69 96 1025.2
20260905205701 18 158 3.2 8.0 0.00 0.00 0.69 96 1025.2
20260905204700 18 0 0.0 0.0 0.00 0.00 0.69 94 1025.0
20260905203700 18 204 0.0 4.8 0.00 0.00 0.69 93 1025.0
20260905202700 18 197 4.8 14.5 0.00 0.00 0.69 94 1025.0
20260905201659 18 218 0.0 4.8 0.00 0.00 0.69 93 1024.7
20260905200659 18 184 0.0 3.2 0.00 0.00 0.69 92 1024.4
20260905194658 18 146 1.6 4.8 0.00 0.00 0.69 91 1024.3
20260905193658 19 128 1.6 4.8 0.00 0.00 0.69 91 1024.3
20260905192658 18 184 3.2 14.5 0.00 0.00 0.69 90 1024.2
20260905191657 18 162 4.8 11.3 0.00 0.00 0.69 90 1024.1
20260905190657 18 131 4.8 14.5 0.00 0.00 0.69 90 1024.1
20260905185657 18 191 3.2 12.9 0.00 0.00 0.69 89 1024.1
20260905184656 18 153 1.6 9.7 0.00 0.00 0.69 89 1024.0
20260905183655 18 288 3.2 14.5 0.00 0.00 0.69 88 1023.8
20260905182655 18 197 3.2 9.7 0.00 0.00 0.69 87 1023.7
20260905181655 18 183 4.8 12.9 0.00 0.00 0.69 86 1023.6
20260905180655 19 169 3.2 14.5 0.00 0.00 0.69 86 1023.6
20260905175654 19 201 3.2 14.5 0.00 0.00 0.69 84 1023.5
20260905174654 19 204 4.8 12.9 0.00 0.00 0.69 82 1023.4
20260905173653 20 200 6.4 12.9 0.00 0.00 0.69 80 1023.2
20260905172653 20 197 4.8 14.5 0.00 0.00 0.69 78 1023.1
20260905171652 20 288 6.4 16.1 0.00 0.00 0.69 77 1023.1
20260905170652 20 150 8.0 14.5 0.00 0.00 0.69 76 1023.1
20260905164651 21 180 8.0 17.7 0.00 0.00 0.69 74 1023.1
20260905163651 21 288 6.4 14.5 0.00 0.00 0.69 74 1023.0
20260905162651 21 190 6.4 17.7 0.00 0.00 0.69 74 1023.0
20260905161651 21 205 4.8 16.1 0.00 0.00 0.69 75 1023.0
20260905160650 21 288 6.4 16.1 0.00 0.00 0.69 72 1022.9
20260905155650 21 181 4.8 16.1 0.00 0.00 0.69 73 1022.9
20260905154649 21 187 6.4 16.1 0.00 0.00 0.69 75 1022.9
20260905152649 21 288 4.8 16.1 0.00 0.00 0.69 77 1023.1
20260905151649 21 191 3.2 16.1 0.00 0.00 0.69 78 1023.0
20260905150648 21 200 6.4 17.7 0.00 0.00 0.69 78 1023.0
20260905145647 20 186 9.7 24.1 0.00 0.00 0.69 81 1023.1
20260905144647 20 184 9.7 25.7 0.00 0.00 0.69 82 1023.0
20260905143647 21 195 6.4 19.3 0.00 0.00 0.69 80 1023.1
20260905142646 21 203 6.4 17.7 0.00 0.00 0.69 82 1023.2
20260905141646 20 208 8.0 19.3 0.00 0.00 0.69 83 1023.1
20260905135646 19 200 9.7 22.5 0.00 0.00 0.69 85 1023.4
20260905134645 19 200 8.0 20.9 0.00 0.00 0.69 84 1023.4
20260905132645 20 181 4.8 14.5 0.00 0.00 0.69 86 1023.2
20260905131644 20 188 6.4 16.1 0.00 0.00 0.69 86 1023.1
20260905130644 20 211 4.8 12.9 0.00 0.00 0.69 88 1023.2
20260905123643 19 191 6.4 17.7 0.00 0.00 0.69 86 1023.4
20260905121642 19 194 6.4 16.1 0.00 0.00 0.69 84 1023.4
20260905120641 20 203 6.4 14.5 0.00 0.00 0.69 85 1023.2
20260905114640 20 288 3.2 11.3 0.00 0.00 0.69 84 1023.4
20260905112640 20 204 4.8 12.9 0.00 0.00 0.69 87 1023.2
20260905110639 19 172 1.6 6.4 0.00 0.00 0.69 93 1023.5
20260905105639 20 201 3.2 9.7 0.00 0.00 0.69 87 1023.5
20260905104638 21 198 3.2 11.3 0.00 0.00 0.69 86 1023.2
20260905103638 20 195 3.2 11.3 0.00 0.00 0.69 85 1023.2
20260905102637 20 172 1.6 8.0 0.00 0.00 0.69 87 1023.1
20260905101637 19 118 0.0 4.8 0.00 0.00 0.69 93 1023.0
20260905100637 18 139 0.0 3.2 0.00 0.00 0.69 96 1023.1
20260905095636 18 179 3.2 9.7 0.00 0.00 0.69 95 1023.1
20260905094636 17 162 3.2 14.5 0.00 0.00 0.69 95 1023.0
20260905093636 17 170 3.2 6.4 0.00 0.00 0.69 96 1023.0
20260905092635 17 146 1.6 8.0 0.00 0.00 0.69 96 1023.0
20260905091635 17 215 3.2 16.1 0.00 0.00 0.69 97 1023.1
20260905090635 16 184 1.6 12.9 0.00 0.00 0.69 97 1022.9
20260905085634 16 197 4.8 16.1 0.00 0.00 0.69 98 1022.8
20260905084634 15 63 6.4 14.5 0.00 0.00 0.69 98 1022.7
20260905083633 15 139 4.8 14.5 0.00 0.00 0.69 99 1022.8
20260905082633 14 44 4.8 14.5 0.00 0.00 0.69 100 1023.0
20260905080632 13 128 4.8 11.3 0.00 0.00 0.69 100 1022.9
20260905075632 13 146 3.2 11.3 0.00 0.00 0.69 100 1022.9
20260905074632 13 160 3.2 14.5 0.00 0.00 0.69 100 1022.7
20260905073632 13 163 3.2 9.7 0.00 0.00 0.69 100 1022.7
20260905072631 13 159 3.2 8.0 0.00 0.00 0.69 100 1022.5
20260905071631 13 165 6.4 16.1 0.00 0.00 0.66 100 1022.7
20260905070630 13 205 4.8 8.0 0.00 0.00 0.66 100 1022.3
20260905065630 13 160 6.4 11.3 0.00 0.00 0.64 100 1022.0
20260905064629 13 203 6.4 17.7 0.00 0.00 0.53 100 1022.1
20260905061629 14 0 0.0 0.0 0.00 0.00 0.36 99 1022.1
20260905055628 14 350 3.2 8.0 0.00 0.00 0.13 97 1022.0
20260905054628 15 288 8.0 17.7 0.00 0.00 0.05 96 1021.8
20260905053627 16 307 4.8 16.1 0.00 0.00 0.03 91 1021.2
20260905052627 17 283 8.0 24.1 0.00 0.00 0.00 80 1021.6
20260905051626 18 288 3.2 14.5 0.00 0.00 0.00 76 1020.2
20260905050626 18 314 9.7 35.4 0.00 0.00 0.00 76 1020.1
20260905045625 19 32 4.8 14.5 0.00 0.00 0.00 81 1019.8
20260905044625 19 288 4.8 16.1 0.00 0.00 0.00 80 1019.4
20260905043625 19 288 4.8 16.1 0.00 0.00 0.00 82 1019.2
20260905042624 20 288 3.2 12.9 0.00 0.00 0.00 81 1019.2
20260905041624 20 288 3.2 14.5 0.00 0.00 0.00 79 1019.0
20260905040624 20 309 8.0 19.3 0.00 0.00 0.00 77 1018.8
20260905035624 20 315 6.4 16.1 0.00 0.00 0.00 77 1018.7
20260905034623 20 330 8.0 20.9 0.00 0.00 0.00 76 1018.5
20260905033623 21 288 8.0 17.7 0.00 0.00 0.00 75 1018.1
20260905032622 22 288 3.2 14.5 0.00 0.00 0.00 73 1017.4
20260905031622 22 217 1.6 11.3 0.00 0.00 0.00 72 1017.5
20260905030621 22 207 4.8 16.1 0.00 0.00 0.00 71 1017.5
20260905025621 22 195 3.2 12.9 0.00 0.00 0.00 70 1017.3